Terug naar catalogus

STARLINK-37794

ActiefCommunicatieSSO
NORAD 69310·PAYLOAD·🇺🇸 United States

Gelanceerd May 30, 2026 vanaf Vandenberg Space Force Base

Loading…

Volgende Passages (komende 24 uur)

TLE

VersSource: CelesTrak SupGP

Epoch: Sep 15, 2026, 03:30 UTC

1 69310C 26119Q   26258.14631944 -.00055568  00000+0 -17252-2 0  2580
2 69310  97.2825 282.9829 0001164  90.7777 295.6839 15.33463354    13

Volg STARLINK-37794 in realtime met AllMySat

Download on the App Store